Location: Huntsville
(41.2590°N, 111.7678°W)
Time: 07:59:23
(UTC+00:00)

SR - All Passes

Search period start: 25 September 2022 00:00
Search period end: 05 October 2022 00:00
Orbit: 573 x 879 km, 66.7° (Epoch: 24 September)

Date Brightness Start Highest point End Pass type
(mag) Time Alt. Az. Time Alt. Az. Time Alt. Az.
25 Sep - 04:51:44 10° SSE 04:56:05 22° ESE 05:00:29 10° ENE night (unlit)
25 Sep - 06:31:53 10° SW 06:37:41 61° WNW 06:43:34 10° NNE visible
25 Sep - 08:17:55 10° WNW 08:20:58 14° NW 08:24:01 10° N visible
25 Sep - 13:32:26 10° N 13:36:16 19° NE 13:39:52 10° E daylight
25 Sep - 15:13:37 10° NNW 15:19:04 79° WSW 15:23:59 10° SSE daylight
26 Sep - 04:05:28 10° ESE 04:06:24 10° E 04:07:19 10° E night (unlit)
26 Sep - 05:41:38 10° SSW 05:47:27 74° ESE 05:53:22 10° NNE night (unlit)
26 Sep - 07:25:33 10° W 07:30:08 23° NW 07:34:43 10° N visible
26 Sep - 12:43:34 10° NNE 12:45:20 11° NNE 12:47:04 10° NE visible
26 Sep - 14:23:27 10° NNW 14:28:48 53° NE 14:33:40 10° SE daylight
26 Sep - 16:06:32 10° WNW 16:10:20 20° WSW 16:13:53 10° SSW daylight
27 Sep - 04:52:03 10° S 04:57:24 39° ESE 05:02:50 10° NE night (unlit)
27 Sep - 06:34:05 10° WSW 06:39:31 37° NW 06:44:59 10° NNE visible
27 Sep - 13:33:33 10° NNW 13:38:18 29° NE 13:42:42 10° ESE daylight
27 Sep - 15:15:29 10° NW 15:20:30 42° WSW 15:25:05 10° S daylight
28 Sep - 04:03:26 10° SSE 04:07:33 20° ESE 04:11:44 10° ENE night (unlit)
28 Sep - 05:43:16 10° SW 05:49:05 67° WNW 05:55:00 10° NNE night (unlit)
28 Sep - 07:28:58 10° WNW 07:32:17 15° NW 07:35:36 10° N visible
28 Sep - 12:43:59 10° N 12:47:34 17° NE 12:50:58 10° E visible
28 Sep - 14:25:01 10° NNW 14:30:28 86° WSW 14:35:22 10° SSE daylight
29 Sep - 04:53:05 10° SSW 04:58:53 68° ESE 05:04:46 10° NE night (unlit)
29 Sep - 06:36:45 10° W 06:41:28 24° NW 06:46:11 10° N visible
29 Sep - 11:55:29 10° NNE 11:56:37 11° NNE 11:57:44 10° NE visible
29 Sep - 13:34:54 10° NNW 13:40:10 48° NE 13:44:58 10° SE daylight
29 Sep - 15:17:48 10° WNW 15:21:47 22° WSW 15:25:31 10° SSW daylight
30 Sep - 04:03:36 10° S 04:08:51 36° ESE 04:14:11 10° NE night (unlit)
30 Sep - 05:45:21 10° WSW 05:50:52 40° NW 05:56:25 10° NNE visible
30 Sep - 12:45:02 10° N 12:49:38 27° NE 12:53:54 10° ESE visible
30 Sep - 14:26:51 10° NW 14:31:56 46° WSW 14:36:33 10° S daylight
01 Oct - 03:15:08 10° SE 03:19:00 18° ESE 03:22:55 10° ENE night (unlit)
01 Oct - 04:54:37 10° SW 05:00:29 72° WNW 05:06:24 10° NNE night (unlit)
01 Oct - 06:40:03 10° WNW 06:43:35 16° NW 06:47:08 10° N visible
01 Oct - 11:55:33 10° N 11:58:51 16° NE 12:02:02 10° ENE visible
01 Oct - 13:36:26 10° NNW 13:41:50 86° ENE 13:46:44 10° SSE daylight
01 Oct - 15:21:32 10° W 15:22:53 11° W 15:24:14 10° WSW daylight
02 Oct - 04:04:31 10° SSW 04:10:17 63° ESE 04:16:08 10° NE night (unlit)
02 Oct - 05:47:56 10° WSW 05:52:48 26° NW 05:57:39 10° N night (unlit)
02 Oct - 12:46:20 10° NNW 12:51:31 44° NE 12:56:13 10° SE visible
02 Oct - 14:29:03 10° NW 14:33:12 24° WSW 14:37:05 10° SSW daylight
03 Oct - 03:15:09 10° S 03:20:17 33° ESE 03:25:29 10° NE night (unlit)
03 Oct - 04:56:38 10° SW 05:02:14 43° NW 05:07:51 10° NNE night (unlit)
03 Oct - 06:44:38 10° NW 06:45:52 11° NNW 06:47:05 10° NNW visible
03 Oct - 11:56:31 10° N 12:00:56 25° NE 12:05:03 10° E visible
03 Oct - 13:38:11 10° NW 13:43:20 51° WSW 13:47:59 10° S daylight
04 Oct - 02:26:53 10° SE 02:30:27 17° ESE 02:34:04 10° ENE visible
04 Oct - 04:05:58 10° SSW 04:11:52 78° WNW 04:17:47 10° NNE visible
04 Oct - 05:51:07 10° W 05:54:53 17° NW 05:58:37 10° N night (unlit)
04 Oct - 11:07:06 10° N 11:10:08 15° NE 11:13:03 10° ENE visible
04 Oct - 12:47:49 10° NNW 12:53:12 79° ENE 12:58:04 10° SSE visible
04 Oct - 14:32:20 10° WNW 14:34:20 12° WSW 14:36:16 10° SW daylight
